Time,TemperatureF,DewpointF,PressureIn,WindDirection,WindDirectionDegrees,WindSpeedMPH,WindSpeedGustMPH,Humidity,HourlyPrecipIn,Conditions,Clouds,dailyrainin,SoftwareType,DateUTC
2013-02-04 00:03:00,23.5,19.4,29.88,SE,140,0.0,2.0,84,0.00,,,0.00,Wunderground v.1.15,2013-02-04 06:03:00,
2013-02-04 00:09:00,23.6,19.5,29.88,ESE,121,1.0,1.0,84,0.00,,,0.00,Wunderground v.1.15,2013-02-04 06:09:00,
2013-02-04 00:14:00,23.7,19.6,29.88,SE,142,4.0,4.0,84,0.00,,,0.00,Wunderground v.1.15,2013-02-04 06:14:00,
2013-02-04 00:19:00,23.8,19.4,29.87,SE,129,2.0,5.0,83,0.00,,,0.00,Wunderground v.1.15,2013-02-04 06:19:00,
2013-02-04 00:25:00,23.9,19.5,29.86,SE,135,6.0,8.0,83,0.00,,,0.00,Wunderground v.1.15,2013-02-04 06:25:00,
2013-02-04 00:30:00,23.9,19.5,29.86,SE,142,5.0,8.0,83,0.00,,,0.00,Wunderground v.1.15,2013-02-04 06:30:00,
2013-02-04 00:36:00,24.0,19.6,29.86,SE,140,7.0,8.0,83,0.00,,,0.00,Wunderground v.1.15,2013-02-04 06:36:00,
2013-02-04 00:42:00,24.1,19.7,29.86,SSE,153,7.0,7.0,83,0.00,,,0.00,Wunderground v.1.15,2013-02-04 06:42:00,
2013-02-04 00:48:00,24.2,19.5,29.85,SSE,147,5.0,7.0,82,0.00,,,0.00,Wunderground v.1.15,2013-02-04 06:48:00,
2013-02-04 00:53:00,24.3,19.6,29.85,SSE,150,4.0,6.0,82,0.00,,,0.00,Wunderground v.1.15,2013-02-04 06:53:00,
2013-02-04 00:59:00,24.5,19.8,29.85,SSE,149,6.0,7.0,82,0.00,,,0.00,Wunderground v.1.15,2013-02-04 06:59:00,
2013-02-04 01:05:00,24.7,20.0,29.85,SSE,148,4.0,7.0,82,0.00,,,0.00,Wunderground v.1.15,2013-02-04 07:05:00,
2013-02-04 01:12:00,24.9,20.2,29.84,SE,140,5.0,6.0,82,0.00,,,0.00,Wunderground v.1.15,2013-02-04 07:12:00,
2013-02-04 01:18:00,24.9,20.2,29.84,SE,143,8.0,8.0,82,0.00,,,0.00,Wunderground v.1.15,2013-02-04 07:18:00,
2013-02-04 01:23:00,25.0,20.3,29.83,SSE,149,7.0,7.0,82,0.00,,,0.00,Wunderground v.1.15,2013-02-04 07:23:00,
2013-02-04 01:29:00,25.1,20.4,29.83,SSE,150,6.0,7.0,82,0.00,,,0.00,Wunderground v.1.15,2013-02-04 07:29:00,
2013-02-04 01:34:00,25.1,20.4,29.83,SE,143,7.0,7.0,82,0.00,,,0.00,Wunderground v.1.15,2013-02-04 07:34:00,
2013-02-04 01:39:00,25.1,20.7,29.83,SE,142,8.0,8.0,83,0.00,,,0.00,Wunderground v.1.15,2013-02-04 07:39:00,
2013-02-04 01:45:00,25.1,20.7,29.83,SSE,148,4.0,6.0,83,0.00,,,0.00,Wunderground v.1.15,2013-02-04 07:45:00,
2013-02-04 01:50:00,25.1,20.7,29.83,SE,138,1.0,6.0,83,0.00,,,0.00,Wunderground v.1.15,2013-02-04 07:50:00,
2013-02-04 01:55:00,25.1,20.7,29.83,SSE,148,5.0,5.0,83,0.00,,,0.00,Wunderground v.1.15,2013-02-04 07:55:00,
2013-02-04 02:00:00,25.2,20.8,29.83,SE,138,4.0,5.0,83,0.00,,,0.00,Wunderground v.1.15,2013-02-04 08:00:00,
2013-02-04 02:05:00,25.3,20.9,29.83,SSE,150,6.0,7.0,83,0.00,,,0.00,Wunderground v.1.15,2013-02-04 08:05:00,
2013-02-04 02:10:00,25.3,20.9,29.83,SE,146,6.0,9.0,83,0.00,,,0.00,Wunderground v.1.15,2013-02-04 08:10:00,
2013-02-04 02:15:00,25.4,21.0,29.83,SE,143,4.0,6.0,83,0.00,,,0.00,Wunderground v.1.15,2013-02-04 08:15:00,
2013-02-04 02:20:00,25.4,21.0,29.83,SSE,147,4.0,7.0,83,0.00,,,0.00,Wunderground v.1.15,2013-02-04 08:20:00,
2013-02-04 02:25:00,25.5,20.8,29.84,SE,146,1.0,4.0,82,0.00,,,0.00,Wunderground v.1.15,2013-02-04 08:25:00,
2013-02-04 02:30:00,25.6,21.2,29.84,SE,146,0.0,5.0,83,0.00,,,0.00,Wunderground v.1.15,2013-02-04 08:30:00,
2013-02-04 02:35:00,25.6,20.9,29.84,SE,146,0.0,1.0,82,0.00,,,0.00,Wunderground v.1.15,2013-02-04 08:35:00,
2013-02-04 02:40:00,25.6,20.9,29.84,SE,146,0.0,1.0,82,0.00,,,0.00,Wunderground v.1.15,2013-02-04 08:40:00,
2013-02-04 02:45:00,25.7,21.3,29.84,SE,146,1.0,1.0,83,0.00,,,0.00,Wunderground v.1.15,2013-02-04 08:45:00,
2013-02-04 02:50:00,25.7,21.3,29.83,SE,146,0.0,1.0,83,0.00,,,0.00,Wunderground v.1.15,2013-02-04 08:50:00,
2013-02-04 02:55:00,25.7,21.3,29.83,SE,146,0.0,0.0,83,0.00,,,0.00,Wunderground v.1.15,2013-02-04 08:55:00,
2013-02-04 03:00:00,25.7,21.3,29.83,SE,146,0.0,0.0,83,0.00,,,0.00,Wunderground v.1.15,2013-02-04 09:00:00,
2013-02-04 03:05:00,25.7,21.3,29.83,SE,146,0.0,1.0,83,0.00,,,0.00,Wunderground v.1.15,2013-02-04 09:05:00,
2013-02-04 03:10:00,25.7,21.3,29.83,SE,146,0.0,0.0,83,0.00,,,0.00,Wunderground v.1.15,2013-02-04 09:10:00,
2013-02-04 03:15:00,25.7,21.5,29.83,SE,145,0.0,1.0,84,0.00,,,0.00,Wunderground v.1.15,2013-02-04 09:15:00,
2013-02-04 03:20:00,25.6,21.4,29.83,SE,145,0.0,2.0,84,0.00,,,0.00,Wunderground v.1.15,2013-02-04 09:20:00,
2013-02-04 03:25:00,25.6,21.4,29.83,SE,146,0.0,1.0,84,0.00,,,0.00,Wunderground v.1.15,2013-02-04 09:25:00,
2013-02-04 03:30:00,25.6,21.4,29.83,SE,145,0.0,1.0,84,0.00,,,0.00,Wunderground v.1.15,2013-02-04 09:30:00,
2013-02-04 03:35:00,25.6,21.4,29.82,SE,145,0.0,0.0,84,0.00,,,0.00,Wunderground v.1.15,2013-02-04 09:35:00,
2013-02-04 03:40:00,25.6,21.4,29.82,SE,145,0.0,1.0,84,0.00,,,0.00,Wunderground v.1.15,2013-02-04 09:40:00,
2013-02-04 03:45:00,25.6,21.4,29.83,SE,146,0.0,1.0,84,0.00,,,0.00,Wunderground v.1.15,2013-02-04 09:45:00,
2013-02-04 03:51:00,25.5,21.3,29.82,SE,145,0.0,1.0,84,0.00,,,0.00,Wunderground v.1.15,2013-02-04 09:51:00,
2013-02-04 03:56:00,25.6,21.4,29.82,SE,145,0.0,0.0,84,0.00,,,0.00,Wunderground v.1.15,2013-02-04 09:56:00,
2013-02-04 04:02:00,25.5,21.3,29.82,SE,146,0.0,0.0,84,0.00,,,0.00,Wunderground v.1.15,2013-02-04 10:02:00,
2013-02-04 04:08:00,25.4,21.5,29.82,SE,145,1.0,1.0,85,0.00,,,0.00,Wunderground v.1.15,2013-02-04 10:08:00,
2013-02-04 04:13:00,25.4,21.5,29.82,SE,145,0.0,0.0,85,0.00,,,0.00,Wunderground v.1.15,2013-02-04 10:13:00,
2013-02-04 04:18:00,25.4,21.2,29.82,SE,145,0.0,1.0,84,0.00,,,0.00,Wunderground v.1.15,2013-02-04 10:18:00,
2013-02-04 04:23:00,25.3,21.1,29.82,SE,146,1.0,1.0,84,0.00,,,0.00,Wunderground v.1.15,2013-02-04 10:23:00,
2013-02-04 04:28:00,25.1,20.9,29.82,SE,145,1.0,2.0,84,0.00,,,0.00,Wunderground v.1.15,2013-02-04 10:28:00,
2013-02-04 04:33:00,24.8,20.9,29.82,SE,145,0.0,1.0,85,0.00,,,0.00,Wunderground v.1.15,2013-02-04 10:33:00,
2013-02-04 04:39:00,24.6,20.7,29.82,SE,145,0.0,2.0,85,0.00,,,0.00,Wunderground v.1.15,2013-02-04 10:39:00,
2013-02-04 04:44:00,24.3,20.4,29.82,SE,145,0.0,1.0,85,0.00,,,0.00,Wunderground v.1.15,2013-02-04 10:44:00,
2013-02-04 04:48:00,24.0,20.4,29.82,SE,145,1.0,2.0,86,0.00,,,0.00,Wunderground v.1.15,2013-02-04 10:48:00,
2013-02-04 04:53:00,23.6,20.0,29.82,SE,145,1.0,1.0,86,0.00,,,0.00,Wunderground v.1.15,2013-02-04 10:53:00,
2013-02-04 04:59:00,23.2,19.6,29.82,SE,145,1.0,2.0,86,0.00,,,0.00,Wunderground v.1.15,2013-02-04 10:59:00,
2013-02-04 05:04:00,22.9,19.3,29.82,SE,145,1.0,1.0,86,0.00,,,0.00,Wunderground v.1.15,2013-02-04 11:04:00,
2013-02-04 05:09:00,22.5,18.9,29.82,SE,145,0.0,1.0,86,0.00,,,0.00,Wunderground v.1.15,2013-02-04 11:09:00,
2013-02-04 05:14:00,22.2,18.7,29.82,SE,145,0.0,1.0,86,0.00,,,0.00,Wunderground v.1.15,2013-02-04 11:14:00,
2013-02-04 05:19:00,21.8,18.5,29.82,SE,146,0.0,1.0,87,0.00,,,0.00,Wunderground v.1.15,2013-02-04 11:19:00,
2013-02-04 05:24:00,21.4,18.1,29.82,SE,145,0.0,0.0,87,0.00,,,0.00,Wunderground v.1.15,2013-02-04 11:24:00,
2013-02-04 05:29:00,21.0,17.7,29.82,SE,145,0.0,0.0,87,0.00,,,0.00,Wunderground v.1.15,2013-02-04 11:29:00,
2013-02-04 05:34:00,20.7,17.4,29.83,SE,145,1.0,1.0,87,0.00,,,0.00,Wunderground v.1.15,2013-02-04 11:34:00,
2013-02-04 05:39:00,20.4,17.1,29.83,ENE,68,4.0,7.0,87,0.00,,,0.00,Wunderground v.1.15,2013-02-04 11:39:00,
2013-02-04 05:44:00,20.0,16.8,29.83,NE,34,3.0,6.0,87,0.00,,,0.00,Wunderground v.1.15,2013-02-04 11:44:00,
2013-02-04 05:49:00,19.6,16.6,29.83,NNE,14,4.0,8.0,88,0.00,,,0.00,Wunderground v.1.15,2013-02-04 11:49:00,
2013-02-04 05:54:00,19.2,16.2,29.83,NNE,17,6.0,6.0,88,0.00,,,0.00,Wunderground v.1.15,2013-02-04 11:54:00,
2013-02-04 05:59:00,18.9,15.9,29.84,NNE,12,5.0,7.0,88,0.00,,,0.00,Wunderground v.1.15,2013-02-04 11:59:00,
2013-02-04 06:04:00,18.7,15.7,29.84,North,5,6.0,6.0,88,0.00,,,0.00,Wunderground v.1.15,2013-02-04 12:04:00,
2013-02-04 06:09:00,18.8,16.1,29.84,NNE,15,6.0,6.0,89,0.00,,,0.00,Wunderground v.1.15,2013-02-04 12:09:00,
2013-02-04 06:14:00,19.1,16.7,29.85,North,11,7.0,8.0,90,0.00,,,0.00,Wunderground v.1.15,2013-02-04 12:14:00,
2013-02-04 06:19:00,19.6,17.4,29.85,NNE,18,9.0,11.0,91,0.00,,,0.00,Wunderground v.1.15,2013-02-04 12:19:00,
2013-02-04 06:24:00,20.4,18.2,29.85,NNE,20,9.0,10.0,91,0.00,,,0.00,Wunderground v.1.15,2013-02-04 12:24:00,
2013-02-04 06:29:00,21.3,19.1,29.86,NNE,19,7.0,11.0,91,0.00,,,0.00,Wunderground v.1.15,2013-02-04 12:29:00,
2013-02-04 06:34:00,21.8,19.6,29.86,North,9,6.0,9.0,91,0.00,,,0.00,Wunderground v.1.15,2013-02-04 12:34:00,
2013-02-04 06:39:00,22.0,19.5,29.86,NNE,17,3.0,12.0,90,0.00,,,0.00,Wunderground v.1.15,2013-02-04 12:39:00,
2013-02-04 06:44:00,22.2,19.7,29.86,NNE,14,1.0,6.0,90,0.00,,,0.00,Wunderground v.1.15,2013-02-04 12:44:00,
2013-02-04 06:49:00,22.2,19.7,29.86,North,9,6.0,10.0,90,0.00,,,0.00,Wunderground v.1.15,2013-02-04 12:49:00,
2013-02-04 06:54:00,22.3,19.8,29.87,North,5,0.0,8.0,90,0.00,,,0.00,Wunderground v.1.15,2013-02-04 12:54:00,
2013-02-04 06:59:00,22.2,19.7,29.87,NNE,19,3.0,8.0,90,0.00,,,0.00,Wunderground v.1.15,2013-02-04 12:59:00,
2013-02-04 07:04:00,22.0,19.3,29.87,NNE,19,1.0,5.0,89,0.00,,,0.00,Wunderground v.1.15,2013-02-04 13:04:00,
2013-02-04 07:09:00,21.8,19.1,29.87,NNE,21,2.0,3.0,89,0.00,,,0.00,Wunderground v.1.15,2013-02-04 13:09:00,
2013-02-04 07:14:00,21.5,18.8,29.87,NNE,24,1.0,3.0,89,0.00,,,0.00,Wunderground v.1.15,2013-02-04 13:14:00,
2013-02-04 07:19:00,21.2,18.5,29.87,North,9,3.0,5.0,89,0.00,,,0.00,Wunderground v.1.15,2013-02-04 13:19:00,
2013-02-04 07:24:00,20.9,18.2,29.88,NNE,21,3.0,5.0,89,0.00,,,0.00,Wunderground v.1.15,2013-02-04 13:24:00,
2013-02-04 07:29:00,20.7,18.0,29.89,North,9,6.0,9.0,89,0.00,,,0.00,Wunderground v.1.15,2013-02-04 13:29:00,
2013-02-04 07:34:00,20.4,17.9,29.89,North,10,8.0,11.0,90,0.00,,,0.00,Wunderground v.1.15,2013-02-04 13:34:00,
2013-02-04 07:39:00,20.3,17.8,29.89,North,11,7.0,13.0,90,0.00,,,0.00,Wunderground v.1.15,2013-02-04 13:39:00,
2013-02-04 07:44:00,20.3,18.1,29.89,NNE,19,6.0,12.0,91,0.00,,,0.00,Wunderground v.1.15,2013-02-04 13:44:00,
2013-02-04 07:49:00,20.4,18.2,29.89,North,10,11.0,16.0,91,0.00,,,0.00,Wunderground v.1.15,2013-02-04 13:49:00,
2013-02-04 07:54:00,20.4,18.2,29.90,NNE,15,9.0,10.0,91,0.00,,,0.00,Wunderground v.1.15,2013-02-04 13:54:00,
2013-02-04 07:59:00,20.4,18.2,29.90,NNE,29,7.0,15.0,91,0.00,,,0.00,Wunderground v.1.15,2013-02-04 13:59:00,
2013-02-04 08:04:00,20.3,18.1,29.91,NNE,27,4.0,12.0,91,0.00,,,0.00,Wunderground v.1.15,2013-02-04 14:04:00,
2013-02-04 08:09:00,20.2,18.0,29.91,NNE,27,3.0,6.0,91,0.00,,,0.00,Wunderground v.1.15,2013-02-04 14:09:00,
2013-02-04 08:14:00,20.2,18.0,29.91,NNE,20,6.0,11.0,91,0.00,,,0.00,Wunderground v.1.15,2013-02-04 14:14:00,
2013-02-04 08:19:00,20.1,17.9,29.91,NNE,17,4.0,11.0,91,0.00,,,0.00,Wunderground v.1.15,2013-02-04 14:19:00,
2013-02-04 08:24:00,19.9,17.7,29.92,NNE,25,5.0,10.0,91,0.00,,,0.00,Wunderground v.1.15,2013-02-04 14:24:00,
2013-02-04 08:29:00,19.8,17.6,29.92,NNE,15,5.0,14.0,91,0.00,,,0.00,Wunderground v.1.15,2013-02-04 14:29:00,
2013-02-04 08:34:00,19.7,17.5,29.91,NNE,22,2.0,8.0,91,0.00,,,0.00,Wunderground v.1.15,2013-02-04 14:34:00,
2013-02-04 08:39:00,19.7,17.5,29.92,NE,34,6.0,17.0,91,0.00,,,0.00,Wunderground v.1.15,2013-02-04 14:39:00,
2013-02-04 08:44:00,19.6,17.4,29.93,NNE,21,4.0,7.0,91,0.00,,,0.00,Wunderground v.1.15,2013-02-04 14:44:00,
2013-02-04 08:49:00,19.5,17.3,29.93,NNE,22,3.0,7.0,91,0.00,,,0.00,Wunderground v.1.15,2013-02-04 14:49:00,
2013-02-04 08:54:00,19.6,17.4,29.93,NNE,24,2.0,11.0,91,0.00,,,0.00,Wunderground v.1.15,2013-02-04 14:54:00,
2013-02-04 08:59:00,19.6,17.4,29.93,NNE,30,2.0,11.0,91,0.00,,,0.00,Wunderground v.1.15,2013-02-04 14:59:00,
2013-02-04 09:04:00,19.7,17.5,29.94,North,10,8.0,12.0,91,0.00,,,0.00,Wunderground v.1.15,2013-02-04 15:04:00,
2013-02-04 09:09:00,19.4,16.9,29.94,NNE,18,12.0,12.0,90,0.00,,,0.00,Wunderground v.1.15,2013-02-04 15:09:00,
2013-02-04 09:14:00,19.3,17.1,29.94,North,11,9.0,10.0,91,0.00,,,0.00,Wunderground v.1.15,2013-02-04 15:14:00,
2013-02-04 09:19:00,19.3,16.8,29.94,NNE,15,2.0,14.0,90,0.00,,,0.00,Wunderground v.1.15,2013-02-04 15:19:00,
2013-02-04 09:24:00,19.2,16.7,29.94,NNE,19,5.0,6.0,90,0.00,,,0.00,Wunderground v.1.15,2013-02-04 15:24:00,
2013-02-04 09:29:00,19.2,16.7,29.94,NNE,17,1.0,7.0,90,0.00,,,0.00,Wunderground v.1.15,2013-02-04 15:29:00,
2013-02-04 09:34:00,19.4,16.9,29.93,NNE,17,2.0,5.0,90,0.00,,,0.00,Wunderground v.1.15,2013-02-04 15:34:00,
2013-02-04 09:39:00,19.5,17.0,29.94,NNE,15,8.0,14.0,90,0.00,,,0.00,Wunderground v.1.15,2013-02-04 15:39:00,
2013-02-04 09:44:00,19.4,16.9,29.94,North,5,16.0,16.0,90,0.00,,,0.00,Wunderground v.1.15,2013-02-04 15:44:00,
2013-02-04 09:49:00,19.3,16.8,29.95,NE,38,2.0,16.0,90,0.00,,,0.00,Wunderground v.1.15,2013-02-04 15:49:00,
2013-02-04 09:54:00,19.7,17.5,29.95,NE,46,2.0,7.0,91,0.00,,,0.00,Wunderground v.1.15,2013-02-04 15:54:00,
2013-02-04 09:59:00,19.9,17.4,29.95,NNE,17,7.0,14.0,90,0.00,,,0.00,Wunderground v.1.15,2013-02-04 15:59:00,
2013-02-04 10:04:00,19.9,17.4,29.95,NNE,13,5.0,9.0,90,0.00,,,0.00,Wunderground v.1.15,2013-02-04 16:04:00,
2013-02-04 10:09:00,19.9,17.4,29.95,NNE,22,10.0,15.0,90,0.00,,,0.00,Wunderground v.1.15,2013-02-04 16:09:00,
2013-02-04 10:15:00,20.0,17.5,29.94,NNE,13,3.0,8.0,90,0.00,,,0.00,Wunderground v.1.15,2013-02-04 16:15:00,
2013-02-04 10:20:00,20.3,17.8,29.95,NE,40,2.0,10.0,90,0.00,,,0.00,Wunderground v.1.15,2013-02-04 16:20:00,
2013-02-04 10:25:00,20.5,18.0,29.95,NNE,28,3.0,12.0,90,0.00,,,0.00,Wunderground v.1.15,2013-02-04 16:25:00,
2013-02-04 10:30:00,20.3,17.6,29.96,North,5,15.0,16.0,89,0.00,,,0.00,Wunderground v.1.15,2013-02-04 16:30:00,
2013-02-04 10:35:00,20.0,17.3,29.98,North,5,16.0,20.0,89,0.00,,,0.00,Wunderground v.1.15,2013-02-04 16:35:00,
2013-02-04 10:40:00,19.9,17.4,29.98,NNE,15,14.0,20.0,90,0.00,,,0.00,Wunderground v.1.15,2013-02-04 16:40:00,
2013-02-04 10:45:00,19.8,17.1,29.99,North,11,17.0,19.0,89,0.00,,,0.00,Wunderground v.1.15,2013-02-04 16:45:00,
2013-02-04 10:50:00,19.9,17.2,29.99,NNE,24,13.0,19.0,89,0.00,,,0.00,Wunderground v.1.15,2013-02-04 16:50:00,
2013-02-04 10:55:00,20.0,17.3,29.99,North,5,13.0,17.0,89,0.00,,,0.00,Wunderground v.1.15,2013-02-04 16:55:00,
2013-02-04 11:00:00,20.1,17.1,29.99,NNE,14,15.0,15.0,88,0.00,,,0.00,Wunderground v.1.15,2013-02-04 17:00:00,
2013-02-04 11:05:00,20.1,17.1,30.00,North,10,14.0,15.0,88,0.00,,,0.00,Wunderground v.1.15,2013-02-04 17:05:00,
2013-02-04 11:10:00,20.2,17.2,29.99,North,9,14.0,14.0,88,0.00,,,0.00,Wunderground v.1.15,2013-02-04 17:10:00,
2013-02-04 11:15:00,20.2,17.2,29.98,NNE,33,3.0,15.0,88,0.00,,,0.00,Wunderground v.1.15,2013-02-04 17:15:00,
2013-02-04 11:20:00,20.7,17.7,29.98,NNE,13,2.0,15.0,88,0.00,,,0.00,Wunderground v.1.15,2013-02-04 17:20:00,
2013-02-04 11:25:00,20.9,17.4,30.00,NNE,33,10.0,15.0,86,0.00,,,0.00,Wunderground v.1.15,2013-02-04 17:25:00,
2013-02-04 11:30:00,20.7,17.2,30.00,North,355,13.0,15.0,86,0.00,,,0.00,Wunderground v.1.15,2013-02-04 17:30:00,
2013-02-04 11:35:00,20.8,17.3,30.01,North,5,12.0,15.0,86,0.00,,,0.00,Wunderground v.1.15,2013-02-04 17:35:00,
2013-02-04 11:40:00,20.9,17.4,30.01,North,5,13.0,16.0,86,0.00,,,0.00,Wunderground v.1.15,2013-02-04 17:40:00,
2013-02-04 11:45:00,21.0,17.5,30.02,North,360,14.0,16.0,86,0.00,,,0.00,Wunderground v.1.15,2013-02-04 17:45:00,
2013-02-04 11:50:00,21.2,17.7,30.02,North,360,13.0,16.0,86,0.00,,,0.00,Wunderground v.1.15,2013-02-04 17:50:00,
2013-02-04 11:55:00,21.4,17.9,30.02,North,355,16.0,17.0,86,0.00,,,0.00,Wunderground v.1.15,2013-02-04 17:55:00,
2013-02-04 12:00:00,21.3,17.8,30.02,North,360,14.0,15.0,86,0.00,,,0.00,Wunderground v.1.15,2013-02-04 18:00:00,
2013-02-04 12:05:00,21.3,17.8,30.02,North,360,13.0,19.0,86,0.00,,,0.00,Wunderground v.1.15,2013-02-04 18:05:00,
2013-02-04 12:10:00,21.4,17.9,30.01,NNW,348,14.0,17.0,86,0.00,,,0.00,Wunderground v.1.15,2013-02-04 18:10:00,
2013-02-04 12:15:00,21.5,18.0,30.01,North,9,12.0,17.0,86,0.00,,,0.00,Wunderground v.1.15,2013-02-04 18:15:00,
2013-02-04 12:20:00,21.5,18.0,30.00,North,5,13.0,17.0,86,0.00,,,0.00,Wunderground v.1.15,2013-02-04 18:20:00,
2013-02-04 12:25:00,21.4,17.9,30.00,North,360,13.0,15.0,86,0.00,,,0.00,Wunderground v.1.15,2013-02-04 18:25:00,
2013-02-04 12:30:00,21.3,17.8,30.00,North,360,11.0,15.0,86,0.00,,,0.00,Wunderground v.1.15,2013-02-04 18:30:00,
2013-02-04 12:35:00,21.3,17.5,30.00,North,360,13.0,17.0,85,0.00,,,0.00,Wunderground v.1.15,2013-02-04 18:35:00,
2013-02-04 12:40:00,21.3,17.5,30.00,North,11,13.0,17.0,85,0.00,,,0.00,Wunderground v.1.15,2013-02-04 18:40:00,
2013-02-04 12:45:00,21.5,18.0,30.00,North,360,14.0,15.0,86,0.00,,,0.00,Wunderground v.1.15,2013-02-04 18:45:00,
2013-02-04 12:50:00,21.6,17.8,29.99,North,5,9.0,15.0,85,0.00,,,0.00,Wunderground v.1.15,2013-02-04 18:50:00,
2013-02-04 12:55:00,22.0,18.5,29.99,NNE,13,8.0,14.0,86,0.00,,,0.00,Wunderground v.1.15,2013-02-04 18:55:00,
2013-02-04 13:01:00,22.0,18.2,29.99,North,5,12.0,13.0,85,0.00,,,0.00,Wunderground v.1.15,2013-02-04 19:01:00,
2013-02-04 13:06:00,21.8,18.0,29.98,North,9,10.0,14.0,85,0.00,,,0.00,Wunderground v.1.15,2013-02-04 19:06:00,
2013-02-04 13:11:00,21.8,18.0,29.98,North,5,12.0,14.0,85,0.00,,,0.00,Wunderground v.1.15,2013-02-04 19:11:00,
2013-02-04 13:16:00,21.9,18.1,29.98,North,360,11.0,12.0,85,0.00,,,0.00,Wunderground v.1.15,2013-02-04 19:16:00,
2013-02-04 13:21:00,21.9,17.8,29.98,North,360,11.0,14.0,84,0.00,,,0.00,Wunderground v.1.15,2013-02-04 19:21:00,
2013-02-04 13:26:00,21.8,18.0,29.98,North,355,10.0,12.0,85,0.00,,,0.00,Wunderground v.1.15,2013-02-04 19:26:00,
2013-02-04 13:31:00,21.7,17.9,29.97,North,5,9.0,13.0,85,0.00,,,0.00,Wunderground v.1.15,2013-02-04 19:31:00,
2013-02-04 13:36:00,22.2,18.7,29.97,North,360,10.0,11.0,86,0.00,,,0.00,Wunderground v.1.15,2013-02-04 19:36:00,
2013-02-04 13:44:00,22.2,18.1,29.97,North,5,6.0,9.0,84,0.00,,,0.00,Wunderground v.1.15,2013-02-04 19:44:00,
2013-02-04 13:49:00,22.5,18.7,29.97,North,11,9.0,10.0,85,0.00,,,0.00,Wunderground v.1.15,2013-02-04 19:49:00,
2013-02-04 13:54:00,22.5,18.4,29.97,North,355,8.0,9.0,84,0.00,,,0.00,Wunderground v.1.15,2013-02-04 19:54:00,
2013-02-04 13:59:00,22.9,19.1,29.97,North,5,6.0,9.0,85,0.00,,,0.00,Wunderground v.1.15,2013-02-04 19:59:00,
2013-02-04 14:04:00,23.4,19.3,29.96,North,5,5.0,5.0,84,0.00,,,0.00,Wunderground v.1.15,2013-02-04 20:04:00,
2013-02-04 14:09:00,23.7,19.0,29.96,NNE,17,6.0,6.0,82,0.00,,,0.00,Wunderground v.1.15,2013-02-04 20:09:00,
2013-02-04 14:14:00,23.9,19.2,29.96,North,10,0.0,3.0,82,0.00,,,0.00,Wunderground v.1.15,2013-02-04 20:14:00,
2013-02-04 14:19:00,24.4,19.4,29.96,North,10,1.0,6.0,81,0.00,,,0.00,Wunderground v.1.15,2013-02-04 20:19:00,
2013-02-04 14:24:00,24.8,19.8,29.96,NNE,12,5.0,6.0,81,0.00,,,0.00,Wunderground v.1.15,2013-02-04 20:24:00,
2013-02-04 14:29:00,24.3,18.7,29.95,NNE,17,2.0,9.0,79,0.00,,,0.00,Wunderground v.1.15,2013-02-04 20:29:00,
2013-02-04 14:34:00,24.5,19.2,29.96,NNE,26,1.0,5.0,80,0.00,,,0.00,Wunderground v.1.15,2013-02-04 20:34:00,
2013-02-04 14:39:00,24.8,19.2,29.96,North,11,8.0,9.0,79,0.00,,,0.00,Wunderground v.1.15,2013-02-04 20:39:00,
2013-02-04 14:44:00,24.3,18.7,29.96,North,360,7.0,9.0,79,0.00,,,0.00,Wunderground v.1.15,2013-02-04 20:44:00,
2013-02-04 14:49:00,23.7,18.7,29.96,North,5,8.0,11.0,81,0.00,,,0.00,Wunderground v.1.15,2013-02-04 20:49:00,
2013-02-04 14:54:00,23.1,18.1,29.97,North,350,9.0,10.0,81,0.00,,,0.00,Wunderground v.1.15,2013-02-04 20:54:00,
2013-02-04 14:59:00,22.8,18.1,29.97,NNW,348,8.0,10.0,82,0.00,,,0.00,Wunderground v.1.15,2013-02-04 20:59:00,
2013-02-04 15:04:00,22.7,18.0,29.98,North,5,6.0,8.0,82,0.00,,,0.00,Wunderground v.1.15,2013-02-04 21:04:00,
2013-02-04 15:09:00,22.6,17.9,29.99,North,349,8.0,8.0,82,0.00,,,0.00,Wunderground v.1.15,2013-02-04 21:09:00,
2013-02-04 15:14:00,22.5,18.1,29.99,NNW,341,9.0,10.0,83,0.00,,,0.00,Wunderground v.1.15,2013-02-04 21:14:00,
2013-02-04 15:19:00,22.5,17.8,29.99,NNW,343,7.0,10.0,82,0.00,,,0.00,Wunderground v.1.15,2013-02-04 21:19:00,
2013-02-04 15:24:00,22.4,17.7,30.00,NNW,333,8.0,9.0,82,0.00,,,0.00,Wunderground v.1.15,2013-02-04 21:24:00,
2013-02-04 15:29:00,22.4,17.7,30.00,NNW,346,8.0,10.0,82,0.00,,,0.00,Wunderground v.1.15,2013-02-04 21:29:00,
2013-02-04 15:34:00,22.4,17.7,30.01,NW,324,8.0,11.0,82,0.00,,,0.00,Wunderground v.1.15,2013-02-04 21:34:00,
2013-02-04 15:39:00,22.3,17.4,30.01,NNW,329,10.0,12.0,81,0.00,,,0.00,Wunderground v.1.15,2013-02-04 21:39:00,
2013-02-04 15:44:00,22.1,16.9,30.01,NNW,333,8.0,11.0,80,0.00,,,0.00,Wunderground v.1.15,2013-02-04 21:44:00,
2013-02-04 15:49:00,22.3,17.6,30.01,NW,309,7.0,11.0,82,0.00,,,0.00,Wunderground v.1.15,2013-02-04 21:49:00,
2013-02-04 15:54:00,22.2,17.5,30.01,NW,317,10.0,10.0,82,0.00,,,0.00,Wunderground v.1.15,2013-02-04 21:54:00,
2013-02-04 15:59:00,22.0,17.3,30.01,NW,315,9.0,10.0,82,0.00,,,0.00,Wunderground v.1.15,2013-02-04 21:59:00,
2013-02-04 16:04:00,21.9,17.2,30.01,NW,317,7.0,8.0,82,0.00,,,0.00,Wunderground v.1.15,2013-02-04 22:04:00,
2013-02-04 16:09:00,21.7,17.1,30.01,NW,319,7.0,8.0,82,0.00,,,0.00,Wunderground v.1.15,2013-02-04 22:09:00,
2013-02-04 16:14:00,21.7,17.1,30.01,NNW,330,6.0,8.0,82,0.00,,,0.00,Wunderground v.1.15,2013-02-04 22:14:00,
2013-02-04 16:19:00,21.7,17.1,30.01,NW,311,6.0,8.0,82,0.00,,,0.00,Wunderground v.1.15,2013-02-04 22:19:00,
2013-02-04 16:24:00,21.9,17.2,30.01,NW,319,6.0,8.0,82,0.00,,,0.00,Wunderground v.1.15,2013-02-04 22:24:00,
2013-02-04 16:29:00,21.9,17.2,30.01,NW,306,9.0,10.0,82,0.00,,,0.00,Wunderground v.1.15,2013-02-04 22:29:00,
2013-02-04 16:34:00,21.8,17.2,30.01,WNW,296,6.0,9.0,82,0.00,,,0.00,Wunderground v.1.15,2013-02-04 22:34:00,
2013-02-04 16:39:00,21.6,17.0,30.00,NW,313,6.0,9.0,82,0.00,,,0.00,Wunderground v.1.15,2013-02-04 22:39:00,
2013-02-04 16:45:00,21.3,16.7,30.00,NW,315,7.0,8.0,82,0.00,,,0.00,Wunderground v.1.15,2013-02-04 22:45:00,
2013-02-04 16:50:00,21.1,16.5,30.00,NW,319,6.0,8.0,82,0.00,,,0.00,Wunderground v.1.15,2013-02-04 22:50:00,
2013-02-04 16:55:00,20.9,16.5,29.99,NW,319,6.0,6.0,83,0.00,,,0.00,Wunderground v.1.15,2013-02-04 22:55:00,
2013-02-04 17:00:00,20.6,16.3,29.99,NW,319,4.0,5.0,83,0.00,,,0.00,Wunderground v.1.15,2013-02-04 23:00:00,
2013-02-04 17:05:00,20.4,16.3,29.99,NW,319,4.0,5.0,84,0.00,,,0.00,Wunderground v.1.15,2013-02-04 23:05:00,
2013-02-04 17:10:00,20.2,16.1,29.99,NW,319,4.0,5.0,84,0.00,,,0.00,Wunderground v.1.15,2013-02-04 23:10:00,
2013-02-04 17:15:00,19.9,15.8,29.99,NW,319,4.0,4.0,84,0.00,,,0.00,Wunderground v.1.15,2013-02-04 23:15:00,
2013-02-04 17:20:00,19.7,15.9,29.99,NW,319,4.0,5.0,85,0.00,,,0.00,Wunderground v.1.15,2013-02-04 23:20:00,
2013-02-04 17:25:00,19.5,15.7,29.99,NW,319,4.0,4.0,85,0.00,,,0.00,Wunderground v.1.15,2013-02-04 23:25:00,
2013-02-04 17:30:00,19.2,15.4,29.99,NW,319,2.0,4.0,85,0.00,,,0.00,Wunderground v.1.15,2013-02-04 23:30:00,
2013-02-04 17:35:00,18.8,15.0,29.99,NW,319,2.0,3.0,85,0.00,,,0.00,Wunderground v.1.15,2013-02-04 23:35:00,
2013-02-04 17:40:00,18.6,15.1,29.99,NW,319,3.0,3.0,86,0.00,,,0.00,Wunderground v.1.15,2013-02-04 23:40:00,
2013-02-04 17:45:00,18.5,15.0,29.99,NW,319,4.0,4.0,86,0.00,,,0.00,Wunderground v.1.15,2013-02-04 23:45:00,
2013-02-04 17:50:00,18.3,14.8,29.99,NW,319,2.0,4.0,86,0.00,,,0.00,Wunderground v.1.15,2013-02-04 23:50:00,
2013-02-04 17:55:00,18.3,15.1,30.00,NW,319,3.0,4.0,87,0.00,,,0.00,Wunderground v.1.15,2013-02-04 23:55:00,
2013-02-04 18:00:00,18.4,15.2,30.00,NW,319,4.0,4.0,87,0.00,,,0.00,Wunderground v.1.15,2013-02-05 00:00:00,
2013-02-04 18:05:00,18.6,15.4,29.99,NW,319,3.0,5.0,87,0.00,,,0.00,Wunderground v.1.15,2013-02-05 00:05:00,
2013-02-04 18:10:00,18.7,15.5,29.99,NW,319,4.0,5.0,87,0.00,,,0.00,Wunderground v.1.15,2013-02-05 00:10:00,
2013-02-04 18:15:00,18.8,15.6,30.00,NW,319,4.0,5.0,87,0.00,,,0.00,Wunderground v.1.15,2013-02-05 00:15:00,
2013-02-04 18:20:00,18.8,15.6,30.00,NW,319,4.0,5.0,87,0.00,,,0.00,Wunderground v.1.15,2013-02-05 00:20:00,
2013-02-04 18:25:00,18.8,15.6,30.00,NW,319,3.0,5.0,87,0.00,,,0.00,Wunderground v.1.15,2013-02-05 00:25:00,
2013-02-04 18:30:00,18.7,15.7,30.00,NW,319,3.0,5.0,88,0.00,,,0.00,Wunderground v.1.15,2013-02-05 00:30:00,
2013-02-04 18:35:00,18.8,15.8,30.00,NW,319,3.0,4.0,88,0.00,,,0.00,Wunderground v.1.15,2013-02-05 00:35:00,
2013-02-04 18:40:00,18.9,15.9,30.00,NW,319,4.0,5.0,88,0.00,,,0.00,Wunderground v.1.15,2013-02-05 00:40:00,
2013-02-04 18:45:00,18.9,15.9,30.00,NW,319,4.0,5.0,88,0.00,,,0.00,Wunderground v.1.15,2013-02-05 00:45:00,
2013-02-04 18:50:00,18.9,15.9,30.00,NW,319,4.0,6.0,88,0.00,,,0.00,Wunderground v.1.15,2013-02-05 00:50:00,
2013-02-04 18:55:00,18.8,15.6,30.01,NW,319,3.0,5.0,87,0.00,,,0.00,Wunderground v.1.15,2013-02-05 00:55:00,
2013-02-04 19:00:00,18.6,15.4,30.01,NW,319,3.0,4.0,87,0.00,,,0.00,Wunderground v.1.15,2013-02-05 01:00:00,
2013-02-04 19:06:00,18.5,15.3,30.00,NW,319,2.0,3.0,87,0.00,,,0.00,Wunderground v.1.15,2013-02-05 01:06:00,
2013-02-04 19:11:00,18.4,15.4,30.00,NW,319,2.0,3.0,88,0.00,,,0.00,Wunderground v.1.15,2013-02-05 01:11:00,
2013-02-04 19:16:00,18.2,15.2,30.00,NW,319,2.0,3.0,88,0.00,,,0.00,Wunderground v.1.15,2013-02-05 01:16:00,
2013-02-04 19:21:00,18.2,15.2,30.00,NW,319,2.0,3.0,88,0.00,,,0.00,Wunderground v.1.15,2013-02-05 01:21:00,
2013-02-04 19:26:00,17.9,14.7,30.00,NW,319,3.0,3.0,87,0.00,,,0.00,Wunderground v.1.15,2013-02-05 01:26:00,
2013-02-04 19:31:00,17.6,14.4,30.00,NW,319,2.0,3.0,87,0.00,,,0.00,Wunderground v.1.15,2013-02-05 01:31:00,
2013-02-04 19:36:00,17.2,14.0,30.00,NW,319,3.0,3.0,87,0.00,,,0.00,Wunderground v.1.15,2013-02-05 01:36:00,
2013-02-04 19:41:00,17.1,14.2,30.00,NW,319,2.0,3.0,88,0.00,,,0.00,Wunderground v.1.15,2013-02-05 01:41:00,
2013-02-04 19:46:00,17.0,14.1,30.00,NW,319,2.0,2.0,88,0.00,,,0.00,Wunderground v.1.15,2013-02-05 01:46:00,
2013-02-04 19:51:00,16.8,13.9,30.00,NW,319,1.0,2.0,88,0.00,,,0.00,Wunderground v.1.15,2013-02-05 01:51:00,
2013-02-04 19:56:00,16.8,14.1,30.00,NW,319,0.0,2.0,89,0.00,,,0.00,Wunderground v.1.15,2013-02-05 01:56:00,
2013-02-04 20:01:00,16.8,14.1,29.99,NW,319,0.0,0.0,89,0.00,,,0.00,Wunderground v.1.15,2013-02-05 02:01:00,
2013-02-04 20:06:00,16.8,14.1,29.99,NW,319,0.0,0.0,89,0.00,,,0.00,Wunderground v.1.15,2013-02-05 02:06:00,
2013-02-04 20:13:00,16.7,14.0,29.99,NW,319,0.0,0.0,89,0.00,,,0.00,Wunderground v.1.15,2013-02-05 02:13:00,
2013-02-04 20:18:00,16.4,13.5,29.99,NW,319,0.0,2.0,88,0.00,,,0.00,Wunderground v.1.15,2013-02-05 02:18:00,
2013-02-04 20:23:00,16.0,13.1,29.99,NW,319,0.0,1.0,88,0.00,,,0.00,Wunderground v.1.15,2013-02-05 02:23:00,
2013-02-04 20:28:00,15.7,12.8,29.99,NW,319,0.0,1.0,88,0.00,,,0.00,Wunderground v.1.15,2013-02-05 02:28:00,
2013-02-04 20:33:00,15.5,12.8,29.98,NW,319,0.0,0.0,89,0.00,,,0.00,Wunderground v.1.15,2013-02-05 02:33:00,
2013-02-04 20:38:00,15.4,12.7,29.98,NW,319,0.0,0.0,89,0.00,,,0.00,Wunderground v.1.15,2013-02-05 02:38:00,
2013-02-04 20:43:00,15.2,12.5,29.98,NW,319,0.0,0.0,89,0.00,,,0.00,Wunderground v.1.15,2013-02-05 02:43:00,
2013-02-04 20:48:00,15.2,12.8,29.97,NW,319,0.0,0.0,90,0.00,,,0.00,Wunderground v.1.15,2013-02-05 02:48:00,
2013-02-04 20:54:00,15.1,12.7,29.97,NW,319,0.0,0.0,90,0.00,,,0.00,Wunderground v.1.15,2013-02-05 02:54:00,
2013-02-04 20:59:00,14.9,12.2,29.97,NW,319,1.0,1.0,89,0.00,,,0.00,Wunderground v.1.15,2013-02-05 02:59:00,
2013-02-04 21:04:00,14.6,11.9,29.97,NW,319,2.0,2.0,89,0.00,,,0.00,Wunderground v.1.15,2013-02-05 03:04:00,
2013-02-04 21:09:00,14.0,11.1,29.97,NW,319,2.0,2.0,88,0.00,,,0.00,Wunderground v.1.15,2013-02-05 03:09:00,
2013-02-04 21:14:00,13.4,10.8,29.97,NW,319,2.0,3.0,89,0.00,,,0.00,Wunderground v.1.15,2013-02-05 03:14:00,
2013-02-04 21:19:00,13.1,10.5,29.97,NW,319,3.0,3.0,89,0.00,,,0.00,Wunderground v.1.15,2013-02-05 03:19:00,
2013-02-04 21:24:00,12.7,10.1,29.97,NW,319,2.0,3.0,89,0.00,,,0.00,Wunderground v.1.15,2013-02-05 03:24:00,
2013-02-04 21:29:00,12.5,10.1,29.97,NW,319,0.0,3.0,90,0.00,,,0.00,Wunderground v.1.15,2013-02-05 03:29:00,
2013-02-04 21:34:00,12.5,10.1,29.97,NW,319,0.0,1.0,90,0.00,,,0.00,Wunderground v.1.15,2013-02-05 03:34:00,
2013-02-04 21:39:00,12.7,10.6,29.97,NW,319,0.0,1.0,91,0.00,,,0.00,Wunderground v.1.15,2013-02-05 03:39:00,
2013-02-04 21:44:00,12.8,10.7,29.97,NW,319,0.0,0.0,91,0.00,,,0.00,Wunderground v.1.15,2013-02-05 03:44:00,
2013-02-04 21:49:00,12.9,10.8,29.96,NW,319,0.0,0.0,91,0.00,,,0.00,Wunderground v.1.15,2013-02-05 03:49:00,
2013-02-04 21:54:00,13.2,11.3,29.96,NW,319,0.0,0.0,92,0.00,,,0.00,Wunderground v.1.15,2013-02-05 03:54:00,
2013-02-04 21:59:00,13.5,11.6,29.95,NW,319,0.0,2.0,92,0.00,,,0.00,Wunderground v.1.15,2013-02-05 03:59:00,
2013-02-04 22:04:00,13.7,11.8,29.95,NW,319,0.0,0.0,92,0.00,,,0.00,Wunderground v.1.15,2013-02-05 04:04:00,
2013-02-04 22:09:00,13.9,11.8,29.95,NW,319,0.0,0.0,91,0.00,,,0.00,Wunderground v.1.15,2013-02-05 04:09:00,
2013-02-04 22:14:00,13.9,12.0,29.96,NW,319,0.0,0.0,92,0.00,,,0.00,Wunderground v.1.15,2013-02-05 04:14:00,
2013-02-04 22:19:00,13.9,11.8,29.96,NW,319,0.0,0.0,91,0.00,,,0.00,Wunderground v.1.15,2013-02-05 04:19:00,
2013-02-04 22:24:00,13.9,11.8,29.96,NW,319,0.0,0.0,91,0.00,,,0.00,Wunderground v.1.15,2013-02-05 04:24:00,
2013-02-04 22:29:00,13.9,11.8,29.96,NW,319,0.0,0.0,91,0.00,,,0.00,Wunderground v.1.15,2013-02-05 04:29:00,
2013-02-04 22:34:00,13.9,12.0,29.96,NW,319,0.0,0.0,92,0.00,,,0.00,Wunderground v.1.15,2013-02-05 04:34:00,
2013-02-04 22:39:00,14.1,12.2,29.96,NW,319,0.0,1.0,92,0.00,,,0.00,Wunderground v.1.15,2013-02-05 04:39:00,
2013-02-04 22:44:00,14.3,12.4,29.96,NW,319,2.0,4.0,92,0.00,,,0.00,Wunderground v.1.15,2013-02-05 04:44:00,
2013-02-04 22:49:00,14.5,12.6,29.96,NW,319,1.0,4.0,92,0.00,,,0.00,Wunderground v.1.15,2013-02-05 04:49:00,
2013-02-04 22:54:00,14.5,12.6,29.96,NW,319,3.0,4.0,92,0.00,,,0.00,Wunderground v.1.15,2013-02-05 04:54:00,
2013-02-04 22:59:00,14.5,12.6,29.96,NW,319,2.0,4.0,92,0.00,,,0.00,Wunderground v.1.15,2013-02-05 04:59:00,
2013-02-04 23:00:00,14.5,12.6,29.96,NW,319,2.0,2.0,92,0.00,,,0.00,Wunderground v.1.15,2013-02-05 05:00:00,
2013-02-04 23:03:00,14.5,12.6,29.96,WNW,300,4.0,4.0,92,0.00,,,0.00,Wunderground v.1.15,2013-02-05 05:03:00,
2013-02-04 23:08:00,14.7,12.8,29.97,West,280,4.0,4.0,92,0.00,,,0.00,Wunderground v.1.15,2013-02-05 05:08:00,
2013-02-04 23:13:00,15.0,13.1,29.97,West,279,4.0,4.0,92,0.00,,,0.00,Wunderground v.1.15,2013-02-05 05:13:00,
2013-02-04 23:18:00,15.1,13.2,29.97,West,273,5.0,6.0,92,0.00,,,0.00,Wunderground v.1.15,2013-02-05 05:18:00,
2013-02-04 23:23:00,15.2,13.3,29.97,WSW,254,5.0,5.0,92,0.00,,,0.00,Wunderground v.1.15,2013-02-05 05:23:00,
2013-02-04 23:28:00,15.3,13.4,29.97,SW,217,5.0,6.0,92,0.00,,,0.00,Wunderground v.1.15,2013-02-05 05:28:00,
2013-02-04 23:33:00,15.3,13.4,29.97,SSW,192,4.0,5.0,92,0.00,,,0.00,Wunderground v.1.15,2013-02-05 05:33:00,
2013-02-04 23:38:00,15.3,13.4,29.97,South,189,5.0,6.0,92,0.00,,,0.00,Wunderground v.1.15,2013-02-05 05:38:00,
2013-02-04 23:44:00,15.3,13.1,29.97,SSW,192,4.0,5.0,91,0.00,,,0.00,Wunderground v.1.15,2013-02-05 05:44:00,
2013-02-04 23:49:00,15.5,13.6,29.97,SSW,192,4.0,7.0,92,0.00,,,0.00,Wunderground v.1.15,2013-02-05 05:49:00,
2013-02-04 23:54:00,15.8,13.9,29.97,South,189,3.0,5.0,92,0.00,,,0.00,Wunderground v.1.15,2013-02-05 05:54:00,